Location: Clinton NY
(43.0598°N, 75.3602°W)
Time: 07:36:15
(UTC-05:00)

Iridium 11 - Visible Passes

Search period start: 24 February 2017 00:00
Search period end: 06 March 2017 00:00
Orbit: 776 x 779 km, 86.4° (Epoch: 23 February)

Date Brightness Start Highest point End Pass type
(mag) Time Alt. Az. Time Alt. Az. Time Alt. Az.
27 Feb 8.1 21:00:45 10° N 21:00:57 11° N 21:00:57 11° N visible
28 Feb 7.9 20:27:28 10° NNE 20:27:50 12° NNE 20:27:50 12° NNE visible
01 Mar 7.8 19:54:36 10° NNE 19:54:45 11° NNE 19:54:45 11° NNE visible
01 Mar 8.1 21:34:31 10° NNW 21:35:14 14° NNW 21:35:14 14° NNW visible
02 Mar 7.7 21:00:49 10° N 21:02:11 19° N 21:02:11 19° N visible
03 Mar 7.3 20:27:22 10° N 20:29:08 21° NNE 20:29:08 21° NNE visible
03 Mar 8.4 22:09:11 10° NW 22:09:39 12° NW 22:09:39 12° NW visible
04 Mar 7.2 19:54:14 10° NNE 19:56:09 19° NE 19:56:09 19° NE visible
04 Mar 7.8 21:34:51 10° NNW 21:36:39 20° NW 21:36:39 20° NW visible
05 Mar 7.3 19:21:36 10° NNE 19:23:12 15° NE 19:23:12 15° NE visible
05 Mar 7.1 21:00:58 10° N 21:03:42 31° NNW 21:03:42 31° NNW visible
